Weather History for Gainesville, FL

Change the Weather History Date:

Friday, February 22, 2013

  Actual Average Record
Temperature  
Mean Temperature 70 °F 59 °F  
Max Temperature 86 °F 71 °F 86 °F (1945)
Min Temperature 54 °F 46 °F 28 °F (1958)
Degree Days  
Heating Degree Days 0 7  
Month to date heating degree days 176 191  
Since 1 July heating degree days 720 993  
Cooling Degree Days 5 1  
Month to date cooling degree days 27 18  
Year to date cooling degree days 87 30  
Growing Degree Days 19 (Base 50)    
Moisture  
Dew Point 58 °F    
Average Humidity 65    
Maximum Humidity 93    
Minimum Humidity 37    
Precipitation  
Precipitation 0.00 in 0.12 in 4.60 in (1998)
Month to date precipitation 0.42 2.47  
Year to date precipitation 0.75 5.78  
Snow  
Snow 0.00 in 0.00 in 0.00 in ()
Month to date snowfall 0.0 0.0  
Since 1 July snowfall 0.0 0.0  
Snow Depth 0.00 in    
Sea Level Pressure  
Sea Level Pressure 30.04 in    
Wind  
Wind Speed 4 mph (SSW)    
Max Wind Speed 15 mph    
Max Gust Speed -    
Visibility 10 miles    
Events      
T = Trace of Precipitation, MM = Missing Value Source: NWS Daily Summary

Daily Weather History Graph

Daily Weather History Graph

Search for Another Location

Airport:

Trip Planner

Search our weather history database for the weather conditions in past years. The results will help you decide how hot, cold, wet, or windy it might be!

Date:

Astronomy

Feb. 22, 2013 Rise Set
Actual Time 7:01 AM EST 6:23 PM EST
Civil Twilight 6:37 AM EST 6:47 PM EST
Nautical Twilight 6:09 AM EST 7:15 PM EST
Astronomical Twilight 5:42 AM EST 7:43 PM EST
Moon 3:42 PM EST (2/22) 4:36 AM EST (2/22)
Length of Visible Light 12h 10m
Length of Day
11h 21m
Waxing Gibbous, 90% of the Moon is Illuminated
Feb 22
Waxing Gibbous
Feb 25
Full
Mar 4
Last Quarter
Mar 11
New
Mar 19
First Quarter

Hourly Weather History & Observations

Time (EST) Temp. Heat Index Dew Point Humidity Pressure Visibility Wind Dir Wind Speed Gust Speed Precip Events Conditions
12:53 AM 60.1 °F - 53.1 °F 78% 30.05 in 10.0 mi Calm Calm - N/A   Overcast
1:53 AM 57.9 °F - 53.1 °F 84% 30.05 in 10.0 mi Calm Calm - N/A   Scattered Clouds
2:53 AM 57.9 °F - 53.1 °F 84% 30.05 in 10.0 mi Calm Calm - N/A   Mostly Cloudy
3:53 AM 55.9 °F - 52.0 °F 87% 30.03 in 10.0 mi Calm Calm - N/A   Clear
4:53 AM 55.9 °F - 53.1 °F 90% 30.03 in 10.0 mi Calm Calm - N/A   Clear
5:53 AM 54.0 °F - 52.0 °F 93% 30.04 in 10.0 mi Calm Calm - N/A   Clear
7:53 AM 59.0 °F - 55.9 °F 90% 30.07 in 10.0 mi Calm Calm - N/A   Clear
8:53 AM 68.0 °F - 62.1 °F 81% 30.08 in 10.0 mi SSE 8.1 mph - N/A   Clear
9:53 AM 73.9 °F - 62.1 °F 66% 30.08 in 10.0 mi South 10.4 mph - N/A   Clear
10:53 AM 78.1 °F - 60.1 °F 54% 30.07 in 10.0 mi South 12.7 mph - N/A   Clear
11:53 AM 81.0 °F 81.3 °F 59.0 °F 47% 30.06 in 10.0 mi South 10.4 mph - N/A   Partly Cloudy
12:53 PM 82.0 °F 82.0 °F 57.9 °F 44% 30.05 in 10.0 mi South 9.2 mph - N/A   Scattered Clouds
1:53 PM 84.0 °F 83.5 °F 57.9 °F 41% 30.02 in 10.0 mi South 11.5 mph - N/A   Mostly Cloudy
2:53 PM 84.0 °F 83.0 °F 55.9 °F 38% 30.01 in 10.0 mi West 3.5 mph - N/A   Scattered Clouds
3:53 PM 84.0 °F 83.3 °F 57.0 °F 40% 30.00 in 10.0 mi Calm Calm - N/A   Overcast
4:53 PM 82.0 °F 82.0 °F 57.9 °F 44% 29.98 in 10.0 mi SE 4.6 mph - N/A   Mostly Cloudy
5:53 PM 79.0 °F - 59.0 °F 50% 29.99 in 10.0 mi West 4.6 mph - N/A   Overcast
6:53 PM 77.0 °F - 63.0 °F 62% 30.02 in 10.0 mi West 10.4 mph - N/A   Overcast
7:53 PM 70.0 °F - 64.0 °F 81% 30.06 in 10.0 mi North 8.1 mph - N/A   Overcast
8:53 PM 66.9 °F - 63.0 °F 87% 30.05 in 10.0 mi NNW 4.6 mph - N/A   Mostly Cloudy
9:53 PM 66.0 °F - 62.1 °F 87% 30.06 in 10.0 mi Calm Calm - N/A   Partly Cloudy
10:53 PM 63.0 °F - 61.0 °F 93% 30.04 in 10.0 mi Calm Calm - N/A   Mostly Cloudy
11:01 PM 62.6 °F - 60.8 °F 94% 30.04 in 10.0 mi Calm Calm - N/A   Mostly Cloudy
11:10 PM 62.6 °F - 60.8 °F 94% 30.03 in 10.0 mi Calm Calm - N/A   Scattered Clouds
11:53 PM 62.1 °F - 60.1 °F 93% 30.01 in 10.0 mi Calm Calm - N/A   Mostly Cloudy